< Cyclone 197905 1979 Season Cyclone 197907 >
Cyclone 197906 (HAZEL)
General InformationTrack Information on Google MapsList of All Images || ResourceGoogle EarthGE AnimationAtom FeedGeoJSON
Detalied Best Track (Time Zone = UTC)
Year Month Day Hour Lat. Long. Pressure (hPa) Wind (kt) Class Image Chart
1979 3 7 00 -15.1 123.9 999 0 0 Image --
1979 3 7 06 -15.0 123.0 999 0 0 Image --
1979 3 7 12 -14.6 122.3 998 0 0 Image --
1979 3 7 18 -14.2 122.0 998 0 0 Image --
1979 3 8 00 -13.7 121.7 998 0 0 Image --
1979 3 8 06 -13.4 121.2 997 0 0 Image --
1979 3 8 12 -13.4 120.6 995 0 0 Image --
1979 3 8 18 -13.8 120.1 994 0 0 Image --
1979 3 9 00 -14.4 119.8 992 0 0 Image --
1979 3 9 06 -14.9 119.8 990 0 0 Image --
1979 3 9 12 -15.4 119.5 988 0 0 Image --
1979 3 9 18 -15.9 119.2 986 0 0 Image --
1979 3 10 00 -16.1 118.5 983 0 0 Image --
1979 3 10 06 -16.7 117.8 980 0 0 Image --
1979 3 10 12 -17.2 117.2 977 0 0 Image --
1979 3 10 18 -17.6 116.4 974 0 0 Image --
1979 3 11 00 -17.9 115.7 971 0 0 Image --
1979 3 11 06 -18.1 115.2 968 0 0 Image --
1979 3 11 12 -18.3 114.6 965 0 0 Image --
1979 3 11 18 -18.6 113.8 963 0 0 Image --
1979 3 12 00 -18.9 113.1 960 0 0 Image --
1979 3 12 06 -19.5 112.6 958 0 0 Image --
1979 3 12 12 -20.2 112.2 955 0 0 Image --
1979 3 12 18 -20.9 112.0 952 0 0 Image --
1979 3 13 00 -22.0 112.2 950 0 0 Image --
1979 3 13 03 -22.6 112.3 947 0 0 Image --
1979 3 13 06 -23.3 112.5 945 0 0 Image --
1979 3 13 09 -24.1 112.8 942 0 0 Image --
1979 3 13 12 -25.0 113.0 939 0 0 Image --
1979 3 13 15 -26.0 113.6 936 0 0 Image --
1979 3 13 18 -27.1 114.2 938 0 0 Image --
1979 3 13 21 -28.3 114.5 950 0 0 Image --
1979 3 14 00 -29.5 115.4 985 0 0 Image --
1979 3 14 01 -29.9 116.0 988.5 0 0 Image --
1979 3 14 03 -30.8 116.2 992 0 0 Image --
1979 3 14 06 -32.3 117.7 1002 0 0 Image --
< Cyclone 197905 1979 Season Cyclone 197907 >

Help